This demonstration page uses our WeatherBlox Daily Observations layout. Learn more.

Left ArrowRight Arrow

Hourly Observations for October 28, 2021

Temp ( °F °C ) Dew Point ( °F °C ) Humidity (%) Winds ( mph kmh ) Pressure ( in mb ) Visibility ( mi km ) Precip ( " mm )
12:53 am 00:53 Clear 47 8.3 40 4.4 77 77 NNW 15 24 29.78 1008 10 16 N/A
1:53 am 01:53 Clear 46 7.8 39 3.9 77 77 NNW 15 24 29.78 1008 10 16 N/A
2:53 am 02:53 Clear 45 7.2 38 3.3 77 77 NNW 15 24 29.80 1009 10 16 N/A
3:53 am 03:53 Clear 44 6.7 36 2.2 73 73 NNW 21 33 29.80 1009 10 16 N/A
4:53 am 04:53 Clear 45 7.2 36 2.2 71 71 NNW 20 31 29.80 1009 10 16 N/A
5:53 am 05:53 Clear 45 7.2 37 2.8 74 74 NNW 20 31 29.81 1009 10 16 N/A
6:53 am 06:53 Clear 44 6.7 36 2.2 73 73 NNW 18 30 29.82 1010 10 16 N/A
7:53 am 07:53 Clear 44 6.7 35 1.7 71 71 NNW 22 35 29.84 1011 10 16 N/A
8:53 am 08:53 Sunny 45 7.2 34 1.1 66 66 NNW 18 30 29.86 1011 10 16 N/A
9:53 am 09:53 Sunny 48 8.9 34 1.1 58 58 NNW 25 41 29.88 1012 10 16 N/A
10:53 am 10:53 Sunny 51 10.6 35 1.7 54 54 N 24 39 29.89 1012 10 16 N/A
11:53 am 11:53 Sunny 54 12.2 35 1.7 49 49 NNW 30 48 29.90 1013 10 16 N/A
12:53 pm 12:53 Sunny 58 14.4 34 1.1 41 41 NNW 31 50 29.89 1012 10 16 N/A
1:53 pm 13:53 Sunny 59 15 32 undefined 36 36 NNW 35 56 29.88 1012 10 16 N/A
2:53 pm 14:53 Sunny 60 15.6 32 undefined 35 35 NNW 31 50 29.89 1012 10 16 N/A
3:53 pm 15:53 Sunny 60 15.6 31 -0.6 33 33 NNW 36 57 29.91 1013 10 16 N/A
4:53 pm 16:53 Sunny 59 15 31 -0.6 35 35 N 30 48 29.91 1013 10 16 N/A
5:53 pm 17:53 Sunny 57 13.9 30 -1.1 36 36 N 26 43 29.94 1014 10 16 N/A
6:53 pm 18:53 Clear 54 12.2 31 -0.6 42 42 NNW 21 33 29.97 1015 10 16 N/A
7:53 pm 19:53 Clear 52 11.1 33 0.6 49 49 NNW 17 28 29.99 1016 10 16 N/A
8:53 pm 20:53 Clear 50 10 32 undefined 50 50 NNW 18 30 30.01 1016 10 16 N/A
9:53 pm 21:53 Clear 49 9.4 31 -0.6 50 50 NNW 17 28 30.03 1017 10 16 N/A
10:53 pm 22:53 Clear 48 8.9 30 -1.1 50 50 NNW 20 31 30.04 1017 10 16 N/A
11:53 pm 23:53 Clear 46 7.8 30 -1.1 54 54 NNW 16 26 30.05 1018 10 16 N/A

Powered by AerisWeather